Weather History for KBGR - April, 2012

Change the Weather History Date:

Monday, April 16, 2012

  Actual Average Record
Temperature  
Mean Temperature 59 °F 43 °F  
Max Temperature 75 °F 53 °F 77 °F (1976)
Min Temperature 42 °F 33 °F 17 °F (1943)
Degree Days  
Heating Degree Days 6 22  
Month to date heating degree days 330 406  
Since 1 July heating degree days 6007 7129  
Cooling Degree Days 0 0  
Month to date cooling degree days 0 0  
Year to date cooling degree days 0 0  
Growing Degree Days 8 (Base 50)    
Moisture  
Dew Point 48 °F    
Average Humidity 71    
Maximum Humidity 93    
Minimum Humidity 49    
Precipitation  
Precipitation 0.00 in 0.12 in 1.73 in (2007)
Month to date precipitation 0.29 1.97  
Year to date precipitation 5.19 10.76  
Snow  
Snow 0.00 in 0.10 in 4.10 in (1988)
Month to date snowfall T 3.0  
Since 1 July snowfall 49.1 65.4  
Snow Depth 0.00 in    
Sea Level Pressure  
Sea Level Pressure 29.95 in    
Wind  
Wind Speed 7 mph (South)    
Max Wind Speed 26 mph    
Max Gust Speed 33 mph    
Visibility 9 miles    
Events      
T = Trace of Precipitation, MM = Missing Value Source: NWS Daily Summary

Daily Weather History Graph

Daily Weather History Graph

Search for Another Location

Airport or City:

Trip Planner

Search our weather history database for the weather conditions in past years. The results will help you decide how hot, cold, wet, or windy it might be!

Date:

Astronomy

Apr. 16, 2012 Rise Set
Actual Time 5:48 AM EDT 7:22 PM EDT
Civil Twilight 5:17 AM EDT 7:53 PM EDT
Nautical Twilight 4:40 AM EDT 8:30 PM EDT
Astronomical Twilight 4:00 AM EDT 9:10 PM EDT
Moon 3:26 AM EDT (4/16) 3:03 PM EDT (4/16)
Length of Visible Light 14h 35m
Length of Day
13h 33m
Waning Crescent, 19% of the Moon is Illuminated
Apr 16
Waning Crescent
Apr 21
New
Apr 29
First Quarter
May 5
Full
May 12
Last Quarter

Hourly Weather History & Observations

Time (EDT) Temp. Windchill Dew Point Humidity Pressure Visibility Wind Dir Wind Speed Gust Speed Precip Events Conditions
12:53 AM 48.0 °F - 44.1 °F 86% 29.96 in 10.0 mi SSW 5.8 mph - N/A   Partly Cloudy
1:53 AM 48.0 °F - 44.1 °F 86% 29.96 in 10.0 mi SW 4.6 mph - N/A   Scattered Clouds
2:53 AM 46.0 °F - 43.0 °F 89% 29.97 in 9.0 mi Calm Calm - N/A   Scattered Clouds
3:53 AM 44.1 °F - 43.0 °F 96% 29.96 in 7.0 mi Calm Calm - N/A   Scattered Clouds
4:33 AM 44.6 °F 43.1 °F 42.8 °F 93% 29.97 in 8.0 mi SSE 3.5 mph - N/A   Scattered Clouds
4:53 AM 42.1 °F 40.2 °F 39.9 °F 92% 29.96 in 6.0 mi SE 3.5 mph - N/A   Scattered Clouds
5:46 AM 44.6 °F 43.1 °F 42.8 °F 93% 29.98 in 7.0 mi SSE 3.5 mph - N/A   Overcast
5:53 AM 45.0 °F 42.6 °F 43.0 °F 93% 29.98 in 6.0 mi SE 4.6 mph - N/A   Overcast
6:53 AM 46.0 °F - 44.1 °F 93% 30.01 in 8.0 mi Calm Calm - N/A   Overcast
7:53 AM 48.0 °F - 44.1 °F 86% 30.01 in 9.0 mi ESE 4.6 mph - N/A   Overcast
8:53 AM 52.0 °F - 46.0 °F 80% 30.01 in 10.0 mi SSE 4.6 mph - N/A   Scattered Clouds
9:53 AM 57.9 °F - 48.0 °F 70% 30.00 in 10.0 mi Variable 3.5 mph - N/A   Scattered Clouds
10:53 AM 64.9 °F - 50.0 °F 58% 30.00 in 10.0 mi SSE 10.4 mph - N/A   Scattered Clouds
11:53 AM 70.0 °F - 52.0 °F 53% 29.98 in 10.0 mi South 11.5 mph 19.6 mph N/A   Scattered Clouds
12:53 PM 72.0 °F - 53.1 °F 51% 29.97 in 10.0 mi SSE 18.4 mph 21.9 mph N/A   Partly Cloudy
1:53 PM 73.4 °F - 53.6 °F 50% 29.95 in 10.0 mi SSW 16.1 mph 24.2 mph N/A   Partly Cloudy
2:53 PM 73.0 °F - 55.9 °F 55% 29.93 in 10.0 mi South 18.4 mph 27.6 mph N/A   Scattered Clouds
3:53 PM 71.6 °F - 57.2 °F 60% 29.93 in 10.0 mi South 17.3 mph 28.8 mph N/A   Scattered Clouds
4:53 PM 68.0 °F - 55.9 °F 65% 29.93 in 10.0 mi South 20.7 mph 28.8 mph N/A   Mostly Cloudy
5:53 PM 66.9 °F - 55.0 °F 66% 29.91 in 10.0 mi SSE 12.7 mph - N/A   Mostly Cloudy
6:53 PM 63.0 °F - 53.1 °F 70% 29.91 in 10.0 mi SSE 12.7 mph - N/A   Mostly Cloudy
7:53 PM 57.9 °F - 50.0 °F 75% 29.92 in 10.0 mi SSE 10.4 mph 19.6 mph N/A   Mostly Cloudy
8:53 PM 55.0 °F - 48.9 °F 80% 29.92 in 10.0 mi South 10.4 mph - N/A   Scattered Clouds
9:53 PM 54.0 °F - 48.0 °F 80% 29.91 in 10.0 mi South 9.2 mph - N/A   Partly Cloudy
10:53 PM 52.0 °F - 48.0 °F 86% 29.91 in 10.0 mi South 8.1 mph - N/A   Clear
11:53 PM 52.0 °F - 48.0 °F 86% 29.89 in 9.0 mi South 5.8 mph - N/A   Clear